Regional Weather Roundup
Issued by NWS Wakefield, VA

Home | Current Version | Previous Version | Graphics & Text | Print | Product List | Glossary On
Versions: 1 2 3 4 5 6 7 8 9 10 11 12 13 14 15 16 17 18 19 20 21 22 23 24 25 26
000
ASUS41 KAKQ 201616
RWRAKQ

REGIONAL WEATHER ROUNDUP
NATIONAL WEATHER SERVICE WAKEFIELD VA
1200 PM EDT THU JUL 20 2017

Note: "fair" indicates few or no clouds below 12,000 feet with no
significant weather and/or obstructions to visibility. * = Denotes
station may not report precipitation (e.g., rain,snow,etc.),
thunder or fog.

VAZ042-051-052>054-056-201700-
NORTHERN VIRGINIA

CITY           SKY/WX    TMP DP  RH WIND       PRES   REMARKS
WASH NATIONAL  PTSUNNY   94  72  48 VRB6      30.01F HX 102
DULLES         PTSUNNY   90  70  51 N7        30.03F HX  95
FORT BELVOIR   MOSUNNY   94  69  44 NW8       30.01F HX  99
QUANTICO       PTSUNNY   89  79  72 S8        30.02F HX 104
FREDERICKSBRG* SUNNY     92  73  54 CALM      30.02F HX 100
STAFFORD*      MOSUNNY   90  71  53 CALM      30.07F HX  96
WARRENTON      MOSUNNY   94  67  40 W3        30.03F HX  97
CULPEPER*      CLOUDY    91  71  51 CALM      30.04F HX  98
MANASSAS*      CLOUDY    91  72  53 VRB6      30.03F HX  98
LEESBURG*      SUNNY     91  73  55 NW7       30.04F HX 100
WINCHESTER     CLOUDY    86  70  58 W3        30.05F
FRONT ROYAL*   MOSUNNY   90  68  48 SE5       30.05F
LURAY*         SUNNY     88  68  51 S5        30.07F
$$

VAZ048-049-060>072-079>083-201700-
CENTRAL AND SOUTH CENTRAL VIRGINIA

CITY           SKY/WX    TMP DP  RH WIND       PRES   REMARKS
RICHMOND       CLOUDY    93  69  45 CALM      30.03F HX  98
CHESTERFIELD*  NOT AVBL
PETERSBURG*    MOSUNNY   91  70  50 CALM      30.05F HX  96
HANOVER        CLOUDY    93  72  50 VRB3      30.05S HX 101
TAPPAHANNOCK*  CLOUDY    94  58  29 N3        30.04S
QUINTON*       FAIR      90  75  61 S5        30.03F HX 100
CHARLOTTSVILLE LGT RAIN  93  67  42 VRB3      30.06F HX  96
GORDONSVILLE*  SUNNY     93  71  48 S3        30.04F HX  99
ORANGE*        CLOUDY    90  72  55 NW3       30.04F HX  96
LOUISA*        MOSUNNY   91  66  43 NW3       30.05F
BUMPASS*       FAIR      91  73  55 CALM      30.04F HX  98
FARMVILLE*     CLOUDY    92  63  37 CALM      30.04F
CREWE*         FAIR      92  62  37 CALM      30.05F
FORT PICKETT*  FAIR     N/A N/A N/A SW6       30.06F
CHASE CITY*    FAIR      90  70  51 W3        30.07F HX  95
CLARKSVILLE*   FAIR      88  73  62 CALM      30.06F HX  96
SOUTH HILL*    CLOUDY    89  73  57 SW3       30.12S HX  97
LAWRENCEVILLE* FAIR      91  67  44 CALM      30.06S
EMPORIA*       SUNNY     90  68  48 SE3       30.07S
$$

VAZ088>098-201700-
SOUTHEAST VIRGINIA

CITY           SKY/WX    TMP DP  RH WIND       PRES   REMARKS
NORFOLK        NOT AVBL
VIRGINIA BEACH SUNNY     90  71  53 CALM      30.03F HX  96
NORFOLK NAVAL  MOSUNNY   91  71  51 SW6       30.05F HX  97
WEST POINT*    SUNNY     92  69  47 CALM      30.04F HX  97
SALUDA*        FAIR      89  79  71 N3        30.03F HX 103
NEWPORT NEWS   SUNNY     92  70  48 W7        30.04F HX  97
LANGLEY AFB    MOSUNNY   91  73  55 SW6       30.03F HX  98
FORT EUSTIS    SUNNY     95  74  50 CALM      30.02F HX 105
WILLIAMSBURG*  SUNNY     95  73  49 CALM      30.04F HX 105
HR EXEC AP*    FAIR      90  73  58 SW3       30.01F HX  98
FRANKLIN*      SUNNY     90  72  55 CALM      30.06S HX  96
US460-WAKEFLD  SUNNY     91  74  57 CALM      30.04F HX 100
$$

VAZ020-022-025-037-045-201700-
WEST CENTRAL AND SOUTHWEST VIRGINIA

CITY           SKY/WX    TMP DP  RH WIND       PRES   REMARKS
STAUNTON*      MOSUNNY   88  65  46 CALM      30.12F
WAYNESBORO*    MOSUNNY   87  67  52 CALM      30.12F
HOT SPRINGS VA MOSUNNY   77  57  50 W7        30.28F
LYNCHBURG      MOSUNNY   90  67  46 VRB5      30.10S
DANVILLE       CLOUDY    88  72  58 CALM      30.09S
SOUTH BOSTON*  FAIR      88  70  54 CALM      30.07F
MARTINSVILLE   CLOUDY    88  69  52 E3        30.13F
ROANOKE        MOSUNNY   92  64  39 NW6       30.13F
BLACKSBURG     SUNNY     85  64  50 NW6       30.22S
DUBLIN*        MOSUNNY   86  59  39 CALM      30.20F
MARION*          N/A    N/A N/A N/A MISG        N/A
HILLSVILLE*    MOSUNNY   82  59  45 NW8       30.22S
RICHLANDS*     FAIR      81  63  55 W6        30.24S
WISE*          CLOUDY    79  64  61 NW3       30.26S
ABINGDON*      PTSUNNY   85  68  57 W3        30.21S
$$

MDZ021>025-VAZ099-100-201700-
SOUTHERN MARYLAND AND THE DELMARVA PENINSULA

CITY           SKY/WX    TMP DP  RH WIND       PRES   REMARKS
PATUXENT RIVER PTSUNNY   89  77  67 E7        30.01F HX 101
BAY BRIDGE APT MOSUNNY   90  73  58 NW3       30.01S HX  98
LEONARDTOWN    MOSUNNY  N/A N/A N/A CALM      30.03F
DOVER          SUNNY     91  88  93 SW5       29.98F HX 128
GEORGETOWN     SUNNY     92  75  57 SW7       30.01F HX 103
EASTON         SUNNY     91  75  59 NW6       30.05S HX 102
CAMBRIDGE      SUNNY     91  75  59 W5        30.01S HX 102
SALISBURY      NOT AVBL
OCEAN CITY     MOSUNNY   86  78  77 S8        30.01F HX  98
WALLOPS ISLAND CLOUDY    91  77  63 SW6       30.02F HX 104
ACCOMACK*      SUNNY     91  73  55 NW8       30.03F HX 100
$$

NCZ012>017-030>032-201700-
NORTH CENTRAL AND EASTERN NORTH CAROLINA

CITY           SKY/WX    TMP DP  RH WIND       PRES   REMARKS
ROANOKE RAPIDS FAIR      90  72  55 SW3       30.06F HX  96
RALEIGH        MOSUNNY   93  67  42 N6        30.08F HX  96
ELIZABETH CITY CLOUDY    88  76  67 CALM      30.06S HX  99
AHOSKIE*         N/A     86  73  64 CALM      30.06F
EDENTON*       CLOUDY    89  73  60 CALM      30.07S HX  97
CURRITUCK*     CLOUDY    89  71  55 W3        30.07R HX  95
KILL DEVIL HLS CLOUDY    84  71  64 CALM      30.06R
MANTEO         CLOUDY    85  72  66 W3        30.07S
CAPE HATTERAS  MOSUNNY   87  75  67 SE7       30.09R HX  96
TARBORO*       NOT AVBL
GOLDSBORO      MOSUNNY   89  76  64 SW3       30.06S HX  99
WASHINGTON     SUNNY     88  72  58 CALM      30.08R
GREENVILLE     SUNNY     88  72  58 CALM      30.08S
NEW BERN       SUNNY     89  71  55 W5        30.09R HX  95
WILMINGTON     SUNNY     87  73  62 CALM      30.09R
$$

VAZ048-201700-
ELSEWHERE

CITY           SKY/WX    TMP DP  RH WIND       PRES   REMARKS
HARRISBURG PA  MOSUNNY   88  72  58 W5        30.00F
BALTIMORE      PTSUNNY   93  70  46 NW9       30.00F HX  99
ANNAPOLIS      MOSUNNY   84  81  90 SE8       30.00S HX  99
ANDREWS AFB    MOSUNNY   93  70  46 W7        30.01F HX  99
PHILADELPHIA   PTSUNNY   92  71  50 SW13      29.98F HX  98
HENDERSON NC   SUNNY     88  67  49 CALM      30.08S
GREENSBORO     PTSUNNY   90  69  50 VRB6      30.11R
ROCKY MOUNT    SUNNY     90  72  55 VRB5      30.07S HX  97
$$

VAZ100-201700-
MARINE

STATION/POSITION TIME  TEMP    WIND        PRES    WAVE   SWELL
                       AIR SEA DIR/SP/G            HT/PER HT/PER
                 (UTC) (F)     (DEG/KT/KT) (MB)    (FT/S) (FT/S)
BRANDYWINE LGT   1548          250/  3/  4   N/A
CAPE MAY NJ      1548   83 76  260/  4/  5 1015.6F
LEWES DE         1542   85 72  350/  3/  3 1015.7F
15NM E FENWICK I 1450   77 77  200/ 10/ 12 1017.1    2/15   2/15
OCEAN-CITY-INLET 1542   76 76  200/  8/ 11 1016.8F
WACHAPREAGUE VA  1542   91 85   CALM  /  5 1016.7F
THOMAS POINT MD  1600   83 82  150/  5/  5   N/A
GOOSES REEF MD   1600   86 85  150/  4/  4 1017.2    0
COVE POINT MD    1542   83     180/  5/  5 1017.1F
SOLOMONS ISLAND  1542   87 84  140/  1/  1   N/A
BISHOPS HEAD MD  1542   84 86  240/  5/  6 1016.7F
PINEY POINT MD   1548          280/  1/  2   N/A
POTOMAC MD       1600   84 86   CALM  /  2 1015.7    0
CAMBRIDGE MD     1542   90 88              1017.2F
LEWISETTA VA     1542   85 84   90/  5/  6 1016.7F
RAPPAHANNOCK LGT 1542          190/  6/  7 1017.7F
STINGRAY PT      1600   86 85   CALM  /  2 1017.7    1
YORK RVR RNG VA  1542   88     250/  5/  5 1017.4F
YORKTOWN VA      1542   88 83  360/  2/  3 1016.8F
JAMESTOWN VA     1600      87  330/  4/  6   N/A
DOMINION TERM VA 1542   84     210/  2/  3 1017.5F
KIPTOPEKE VA     1542      80  200/  4/  5   N/A
CHES BAY BRIDGE  1542   84 82  290/  3/  4 1017.3S
CAPE HENRY VA    1542   83      90/  4/  5   N/A
WILLOUBY STN VA  1542   84     230/  7/  7 1017.4F
S CRANEY ISL VA  1542   88      CALM  /  2 1017.2S
CAPE HENRY BUOY  1530      76                N/A     2/ 7   2/13
1ST LANDING BUOY 1600   85 81              1017.1    1
64NM E OF VA BCH 1550   79 81  220/  6/  8 1018.6R   2/ 7   2/ 7
DUCK PIER NC     1542   77 64  130/  6/  6 1017.9R
44100 DUCK FRF   1505      79                N/A     2/ 7   2/15
44056 DUCK FRF   1600      73                N/A     2/13   2/13
OREGON INLET NC  1548          190/  4/  5   N/A
HATTERAS NC      1542   82 78  170/  5/  6 1018.6R
DIAMOND SHLS NC  1550   82 85   20/  2/  4 1018.7R   2/ 7   2/ 7
CAPE LOOKOUT NC  1600   81     150/  6/  6 1018.5R
$$




USA.gov is the U.S. government's official web portal to all federal, state and local government web resources and services.